Location: Kawakawa
(35.3830°S, 174.0670°E)
Time: 00:17:25
(UTC+13:00)

MOS 1 - Pass Details

Date: 24 January 2019
Orbit: 878 x 892 km, 99.2° (Epoch: 18 October)

Event Time Altitude Azimuth Distance (km) Brightness Sun altitude
Rises 21:13:57 0° 166° (SSE) 3,537 7.6 -7.4°
Reaches altitude 10° 21:16:23 10° 164° (SSE) 2,590 6.9 -7.8°
Maximum altitude 21:22:10 80° 77° (ENE) 916 4.3 -8.9°
Drops below altitude 10° 21:27:52 10° 349° (N) 2,554 6.5 -9.8°
Sets 21:30:15 0° 348° (NNW) 3,484 7.2 -10.3°
